Weather History for KCIN - January, 2013

Change the Weather History Date:

Friday, January 18, 2013

  Actual Average Record
Temperature  
Mean Temperature 39 °F -  
Max Temperature 48 °F 29 °F 55 °F (1951)
Min Temperature 30 °F 12 °F -26 °F (1967)
Degree Days  
Heating Degree Days 26    
Moisture  
Dew Point 30 °F    
Average Humidity 74    
Maximum Humidity 93    
Minimum Humidity 54    
Precipitation  
Precipitation 0.00 in - - ()
Sea Level Pressure  
Sea Level Pressure 29.97 in    
Wind  
Wind Speed 19 mph (SW)    
Max Wind Speed 33 mph    
Max Gust Speed 41 mph    
Visibility 10 miles    
Events      
Averages and records for this station are not official NWS values.
T = Trace of Precipitation, MM = Missing Value Source: NWS Daily Summary

Daily Weather History Graph

Daily Weather History Graph

Search for Another Location

Airport or City:

Trip Planner

Search our weather history database for the weather conditions in past years. The results will help you decide how hot, cold, wet, or windy it might be!

Date:

Astronomy

Jan. 18, 2013 Rise Set
Actual Time 7:43 AM CST 5:16 PM CST
Civil Twilight 7:12 AM CST 5:47 PM CST
Nautical Twilight 6:38 AM CST 6:21 PM CST
Astronomical Twilight 6:04 AM CST 6:54 PM CST
Moon 11:13 AM CST (1/18) 12:15 AM CST (1/18)
Length of Visible Light 10h 34m
Length of Day
9h 33m
Waxing Crescent, 47% of the Moon is Illuminated
Jan 18
Waxing Crescent
Jan 18
First Quarter
Jan 26
Full
Feb 3
Last Quarter
Feb 10
New

Hourly Weather History & Observations

Time (CST) Temp. Windchill Dew Point Humidity Pressure Visibility Wind Dir Wind Speed Gust Speed Precip Events Conditions
12:15 AM 30.2 °F 20.8 °F 28.4 °F 93% 30.26 in 8.0 mi SSW 11.5 mph - N/A   Clear
12:35 AM 30.2 °F 19.8 °F 28.4 °F 93% 30.24 in 10.0 mi SSW 13.8 mph - N/A   Clear
12:55 AM 32.0 °F 20.8 °F 28.4 °F 87% 30.23 in 10.0 mi SSW 17.3 mph - N/A   Clear
1:15 AM 30.2 °F 18.9 °F 28.4 °F 93% 30.22 in 10.0 mi South 16.1 mph - N/A   Clear
1:35 AM 32.0 °F 20.8 °F 28.4 °F 87% 30.22 in 10.0 mi SSW 17.3 mph - N/A   Clear
1:55 AM 32.0 °F 20.8 °F 28.4 °F 87% 30.21 in 10.0 mi South 17.3 mph - N/A   Clear
2:15 AM 32.0 °F 21.6 °F 28.4 °F 87% 30.20 in 10.0 mi South 15.0 mph - N/A   Clear
2:35 AM 32.0 °F 21.6 °F 28.4 °F 87% 30.19 in 10.0 mi South 15.0 mph - N/A   Clear
2:55 AM 32.0 °F 21.6 °F 28.4 °F 87% 30.18 in 10.0 mi SSW 15.0 mph - N/A   Clear
3:15 AM 32.0 °F 22.1 °F 28.4 °F 87% 30.17 in 10.0 mi South 13.8 mph - N/A   Clear
3:35 AM 32.0 °F 22.1 °F 28.4 °F 87% 30.16 in 10.0 mi SSW 13.8 mph - N/A   Clear
3:55 AM 32.0 °F 21.6 °F 28.4 °F 87% 30.14 in 10.0 mi SSW 15.0 mph 23.0 mph N/A   Clear
4:15 AM 33.8 °F 22.2 °F 28.4 °F 81% 30.12 in 10.0 mi SSW 20.7 mph - N/A   Clear
4:55 AM 32.0 °F 20.1 °F 28.4 °F 87% 30.09 in 10.0 mi SSW 19.6 mph 25.3 mph N/A   Clear
5:15 AM 32.0 °F 20.5 °F 28.4 °F 87% 30.08 in 10.0 mi SSW 18.4 mph - N/A   Clear
5:35 AM 32.0 °F 20.5 °F 28.4 °F 87% 30.07 in 10.0 mi SSW 18.4 mph - N/A   Clear
5:55 AM 32.0 °F 19.5 °F 28.4 °F 87% 30.06 in 10.0 mi SSW 21.9 mph - N/A   Clear
6:15 AM 32.0 °F 19.2 °F 28.4 °F 87% 30.04 in 10.0 mi SSW 23.0 mph - N/A   Clear
6:35 AM 32.0 °F 18.9 °F 28.4 °F 87% 30.04 in 10.0 mi SSW 24.2 mph - N/A   Clear
6:55 AM 33.8 °F 22.2 °F 28.4 °F 81% 30.03 in 10.0 mi SSW 20.7 mph 29.9 mph N/A   Clear
7:15 AM 33.8 °F 22.5 °F 28.4 °F 81% 30.03 in 10.0 mi SSW 19.6 mph 27.6 mph N/A   Clear
7:35 AM 33.8 °F 21.3 °F 28.4 °F 81% 30.01 in 10.0 mi SSW 24.2 mph - N/A   Clear
7:55 AM 33.8 °F 21.6 °F 28.4 °F 81% 30.00 in 10.0 mi SSW 23.0 mph 29.9 mph N/A   Clear
8:15 AM 33.8 °F 21.6 °F 28.4 °F 81% 29.99 in 10.0 mi SSW 23.0 mph 29.9 mph N/A   Clear
8:35 AM 33.8 °F 21.6 °F 28.4 °F 81% 29.99 in 10.0 mi SSW 23.0 mph 31.1 mph N/A   Clear
8:55 AM 35.6 °F 24.2 °F 28.4 °F 75% 29.99 in 10.0 mi SW 21.9 mph 28.8 mph N/A   Clear
9:15 AM 35.6 °F 23.0 °F 30.2 °F 81% 29.98 in 10.0 mi SW 27.6 mph 33.4 mph N/A   Clear
9:35 AM 37.4 °F 25.2 °F 30.2 °F 75% 29.97 in 10.0 mi SW 28.8 mph 38.0 mph N/A   Clear
9:55 AM 37.4 °F 25.2 °F 30.2 °F 75% 29.96 in 10.0 mi SW 28.8 mph 36.8 mph N/A   Clear
10:15 AM 39.2 °F 27.6 °F 30.2 °F 70% 29.96 in 10.0 mi SW 28.8 mph 39.1 mph N/A   Clear
10:35 AM 41.0 °F 30.2 °F 32.0 °F 70% 29.95 in 10.0 mi SW 27.6 mph 39.1 mph N/A   Clear
10:55 AM 41.0 °F 29.5 °F 32.0 °F 70% 29.95 in 10.0 mi SW 32.2 mph 40.3 mph N/A   Clear
11:15 AM 42.8 °F 32.3 °F 32.0 °F 66% 29.94 in 10.0 mi SW 29.9 mph 38.0 mph N/A   Clear
11:35 AM 42.8 °F 31.8 °F 32.0 °F 66% 29.92 in 10.0 mi SW 33.4 mph 41.4 mph N/A   Clear
11:55 AM 44.6 °F 34.4 °F 32.0 °F 61% 29.90 in 10.0 mi SW 32.2 mph 39.1 mph N/A   Clear
12:15 PM 44.6 °F 34.4 °F 33.8 °F 66% 29.87 in 10.0 mi SW 32.2 mph 40.3 mph N/A   Clear
12:35 PM 46.4 °F 37.2 °F 32.0 °F 57% 29.87 in 10.0 mi WSW 29.9 mph 41.4 mph N/A   Clear
12:55 PM 46.4 °F 37.4 °F 33.8 °F 62% 29.86 in 10.0 mi SW 28.8 mph 36.8 mph N/A   Clear
1:15 PM 46.4 °F 37.5 °F 33.8 °F 62% 29.85 in 10.0 mi SW 27.6 mph 36.8 mph N/A   Clear
1:35 PM 48.2 °F - 33.8 °F 58% 29.84 in 10.0 mi SW 31.1 mph 39.1 mph N/A   Clear
1:55 PM 48.2 °F - 33.8 °F 58% 29.85 in 10.0 mi SW 27.6 mph 38.0 mph N/A   Clear
2:15 PM 48.2 °F - 33.8 °F 58% 29.85 in 10.0 mi SW 29.9 mph - N/A   Clear
2:35 PM 48.2 °F - 33.8 °F 58% 29.85 in 10.0 mi WSW 21.9 mph 31.1 mph N/A   Clear
2:55 PM 48.2 °F - 32.0 °F 54% 29.85 in 10.0 mi SW 25.3 mph - N/A   Clear
3:15 PM 48.2 °F - 32.0 °F 54% 29.86 in 10.0 mi WSW 23.0 mph 32.2 mph N/A   Clear
3:35 PM 48.2 °F - 32.0 °F 54% 29.86 in 10.0 mi WSW 20.7 mph 27.6 mph N/A   Clear
3:55 PM 48.2 °F - 32.0 °F 54% 29.86 in 10.0 mi WSW 20.7 mph 26.5 mph N/A   Clear
4:15 PM 48.2 °F - 32.0 °F 54% 29.86 in 10.0 mi WSW 20.7 mph 26.5 mph N/A   Clear
4:35 PM 46.4 °F 38.7 °F 32.0 °F 57% 29.87 in 10.0 mi WSW 20.7 mph - N/A   Clear
4:55 PM 44.6 °F 38.1 °F 32.0 °F 61% 29.88 in 10.0 mi WSW 13.8 mph 23.0 mph N/A   Clear
5:15 PM 42.8 °F 36.2 °F 32.0 °F 66% 29.89 in 10.0 mi WSW 12.7 mph - N/A   Clear
5:35 PM 41.0 °F 33.1 °F 32.0 °F 70% 29.89 in 10.0 mi WSW 15.0 mph - N/A   Clear
5:55 PM 37.4 °F 30.8 °F 30.2 °F 75% 29.89 in 10.0 mi WSW 9.2 mph - N/A   Clear
6:15 PM 39.2 °F 30.5 °F 32.0 °F 75% 29.89 in 10.0 mi WSW 16.1 mph - N/A   Clear
6:35 PM 39.2 °F 30.5 °F 32.0 °F 75% 29.89 in 10.0 mi WSW 16.1 mph - N/A   Clear
6:55 PM 41.0 °F 31.9 °F 32.0 °F 70% 29.89 in 10.0 mi SW 19.6 mph - N/A   Clear
7:15 PM 39.2 °F 29.0 °F 32.0 °F 75% 29.89 in 10.0 mi SW 21.9 mph - N/A   Clear
7:35 PM 39.2 °F 28.7 °F 32.0 °F 75% 29.89 in 10.0 mi SW 23.0 mph - N/A   Clear
7:55 PM 39.2 °F 29.0 °F 30.2 °F 70% 29.89 in 10.0 mi SW 21.9 mph - N/A   Clear
8:15 PM 39.2 °F 29.3 °F 32.0 °F 75% 29.88 in 10.0 mi SW 20.7 mph - N/A   Clear
8:35 PM 39.2 °F 29.8 °F 30.2 °F 70% 29.88 in 10.0 mi SW 18.4 mph - N/A   Clear
8:55 PM 39.2 °F 30.2 °F 32.0 °F 75% 29.88 in 10.0 mi SW 17.3 mph - N/A   Clear
9:15 PM 39.2 °F 30.2 °F 32.0 °F 75% 29.88 in 10.0 mi SW 17.3 mph - N/A   Clear
9:35 PM 39.2 °F 30.2 °F 30.2 °F 70% 29.87 in 10.0 mi SW 17.3 mph 23.0 mph N/A   Clear
9:55 PM 37.4 °F 28.5 °F 30.2 °F 75% 29.87 in 10.0 mi SW 15.0 mph 21.9 mph N/A   Clear
10:15 PM 37.4 °F 28.9 °F 30.2 °F 75% 29.86 in 10.0 mi SW 13.8 mph - N/A   Clear
10:35 PM 37.4 °F 31.4 °F 30.2 °F 75% 29.86 in 10.0 mi WSW 8.1 mph 15.0 mph N/A   Clear
10:55 PM 37.4 °F 30.3 °F 30.2 °F 75% 29.85 in 10.0 mi WSW 10.4 mph - N/A   Clear
11:15 PM 35.6 °F 29.9 °F 30.2 °F 81% 29.85 in 10.0 mi West 6.9 mph - N/A   Clear
11:35 PM 35.6 °F 28.0 °F 30.2 °F 81% 29.85 in 10.0 mi WSW 10.4 mph - N/A   Clear
11:55 PM 37.4 °F 30.8 °F 30.2 °F 75% 29.84 in 10.0 mi WSW 9.2 mph 15.0 mph N/A   Clear